#timestamp,LO_Frequency,Hit,StdDev 
1634875215.0,286047003.2,N
1634875215.9,286047003.2,N
1634875235.8,286047003.2,Y
1634875255.6,286046999.9,P
1634875275.5,286047002.2,N
1634875295.3,286046998.1,N
1634875315.1,286047000.0,N
1634875335.9,286047003.8,N
1634875355.7,286047002.5,N
1634875375.5,286047000.1,N
1634875395.4,286047002.2,N
1634875415.2,286046998.4,N
1634875435.1,286046998.9,N
1634875436.0,286046998.9,N
1634875455.8,286046998.2,N
1634875475.6,286047000.4,N
1634875495.5,286047002.3,N
1634875515.3,286047000.9,N
1634875535.1,286046999.2,N
1634875555.9,286046998.5,N
1634875575.7,286046998.4,N
1634875595.6,286046996.8,N
1634875615.4,286046996.9,N
1634875635.2,286046996.6,N
1634875655.1,286046999.6,N
1634875656.0,286046999.6,N
1634875675.8,286046997.7,N
1634875695.6,286046998.0,N
1634875715.5,286046999.0,N
1634875735.3,286046999.7,N
1634875755.2,286046998.2,N
1634875775.9,286047001.1,N
1634875795.7,286046998.2,N
1634875815.6,286047000.8,N
1634875835.4,286047004.3,N
1634875855.2,286047002.6,N
1634875875.1,286047002.0,N
1634875876.0,286047002.0,N
1634875895.8,286046998.6,N
1634875915.7,286046996.9,N
1634875935.5,286046997.1,N
1634875955.3,286046999.9,N
1634875975.2,286047003.8,N
1634875995.0,286047003.0,N
1634875995.9,286047003.0,N
1634876015.8,286047002.7,N
1634876035.6,286047000.9,N
1634876055.4,286047000.9,N
1634876075.3,286047002.4,N
1634876095.1,286047004.0,N
1634876115.8,286047005.8,N
1634876135.7,286047001.3,N
1634876155.5,286047001.0,N
1634876175.4,286047000.3,N
1634876195.2,286047001.1,N
1634876215.0,286046998.3,N
1634876215.9,286046998.3,N
1634876235.8,286046999.3,N
1634876255.6,286046998.3,N
1634876275.4,286046998.6,N
1634876295.3,286047001.1,N
1634876315.1,286047001.2,N
1634876335.9,286046998.5,N
1634876355.7,286047000.6,N
1634876375.5,286047002.7,N
1634876395.4,286047000.2,N
1634876415.2,286047000.5,N
1634876435.0,286046999.5,N
1634876436.0,286046999.5,N
1634876455.8,286046999.5,N
1634876475.6,286046999.5,N
1634876495.5,286047001.0,N
1634876515.3,286047000.1,N
1634876535.1,286047000.3,N
1634876555.9,286047003.8,N
1634876575.7,286047003.6,N
1634876595.6,286047005.9,Y
1634876615.4,286047005.1,P
1634876635.2,286047001.7,N
1634876655.1,286047002.7,N
1634876656.0,286047002.7,N
1634876675.8,286047006.0,Y
1634876695.6,286046999.3,P
1634876715.5,286046994.9,P
1634876735.3,286046996.2,N
1634876755.2,286046999.5,N
1634876775.9,286047001.2,N
1634876795.7,286046996.6,N
1634876815.6,286046997.5,N
1634876835.4,286046995.6,N
1634876855.2,286046995.5,N
1634876875.1,286046998.0,N
1634876876.0,286046998.0,N
1634876895.8,286046997.8,N
1634876915.7,286046997.6,N
1634876935.5,286046995.6,N
1634876955.3,286046993.7,N
1634876975.2,286046994.5,N
1634876995.0,286046995.8,N
1634876995.9,286046995.8,N
1634877015.8,286046995.6,N
1634877035.6,286046993.5,N
1634877055.4,286046994.3,N
1634877075.3,286046992.0,Y
1634877095.1,286046995.7,P
1634877115.8,286046994.9,P
1634877135.7,286046995.4,P
1634877155.5,286046999.6,N
1634877175.4,286046997.9,N
1634877195.2,286046997.7,N
1634877215.0,286046996.6,N
1634877215.9,286046996.6,N
1634877235.8,286046998.5,N
1634877255.6,286047000.0,N
1634877275.4,286047000.0,N
1634877295.3,286046998.7,N
1634877315.1,286046999.2,N
1634877335.9,286046996.6,N
1634877355.7,286046997.6,N
1634877375.5,286046997.7,N
1634877395.4,286046996.3,N
1634877415.2,286046995.1,Y
1634877435.1,286046998.4,P
1634877436.0,286046998.4,P
1634877455.8,286046999.3,N
1634877475.6,286046998.7,N
1634877495.5,286046998.4,N
1634877515.3,286046998.2,Y
1634877535.1,286047000.0,P
1634877555.9,286046999.6,N
1634877575.7,286046999.0,N
1634877595.6,286047000.9,N
1634877615.4,286046999.8,N
1634877635.2,286047000.7,N
1634877655.1,286047001.2,N
1634877656.0,286047001.2,N
1634877675.8,286046999.0,N
1634877695.6,286046999.8,N
1634877715.5,286046998.6,N
1634877735.3,286047005.9,Y
1634877755.2,286047004.5,P
1634877775.9,286047004.0,N
1634877795.7,286047001.4,N
1634877815.6,286047002.2,N
1634877835.4,286047002.1,N
1634877855.2,286047000.3,N
1634877875.1,286046999.9,N
1634877876.0,286046999.9,N
1634877895.8,286046999.1,N
1634877915.7,286046998.5,N
1634877935.5,286047000.5,N
1634877955.3,286046998.2,N
1634877975.2,286046998.2,N
1634877995.0,286046999.3,N
1634877995.9,286046999.3,N
1634878015.8,286046997.0,N
1634878035.6,286046997.0,N
1634878055.4,286046996.7,N
1634878075.3,286046997.7,N
1634878095.1,286046996.6,N
1634878115.8,286046998.6,N
1634878135.7,286047002.7,N
1634878155.5,286046998.5,N
1634878175.4,286047000.4,N
1634878195.2,286047000.8,N
1634878215.0,286047000.5,N
1634878215.9,286047000.5,N
1634878235.8,286047000.3,N
1634878255.6,286047002.4,N
1634878275.4,286046999.7,N
1634878295.3,286047000.5,N
1634878315.1,286046999.8,N
1634878335.9,286047001.1,N
1634878355.7,286046998.2,N
1634878375.5,286047001.1,N
1634878395.4,286047001.2,N
1634878415.2,286047002.3,N
1634878435.1,286047002.7,N
1634878436.0,286047002.7,N
1634878455.8,286046999.5,N
1634878475.6,286046997.0,N
1634878495.5,286046998.5,N
1634878515.3,286047001.0,N
1634878535.2,286046999.0,N
1634878555.9,286047000.9,N
1634878575.7,286047000.5,N
1634878595.6,286047001.9,N
1634878615.4,286046999.7,N
1634878635.2,286047000.2,N
1634878655.1,286047004.4,N
1634878656.0,286047004.4,N
1634878675.8,286047002.3,N
1634878695.7,286047002.0,N
1634878715.5,286047002.4,N
1634878735.3,286046999.7,N
1634878755.2,286047000.2,N
1634878775.0,286047002.7,N
1634878775.9,286047002.7,N
1634878795.8,286046998.1,N
